Simultaneous Nadir Overpasses (SNOs) Predictions

Prediction of SNOs between AQUA and GOES-15 Satellite Orbit:

Table of predicted SNOs for the next 14.0 days since TLE Epoch: 11/13/2020
Index Date Time (AQUA) AQUA Lat,Lon GOES-15 Lat,Lon Distance(km) Time Diff (sec)
1 11/14/2020 22:04:03 0.19,-127.18 0.08,-127.60 48.20 80
2 11/16/2020 21:51:51 0.81,-124.22 0.08,-127.51 375.10 80
3 11/17/2020 10:13:05 0.34,-129.37 -0.06,-127.47 215.34 80
4 11/19/2020 10:00:54 -0.29,-126.41 -0.07,-127.38 110.98 80
5 11/19/2020 22:22:16 -0.85,-131.59 0.04,-127.38 478.99 80
6 11/21/2020 09:48:42 -0.92,-123.45 -0.07,-127.29 437.14 80
7 11/21/2020 22:10:04 -0.22,-128.63 0.05,-127.28 152.88 80
8 11/23/2020 21:57:51 0.35,-125.66 0.06,-127.19 173.24 80
9 11/24/2020 10:19:07 0.73,-130.82 -0.03,-127.15 417.61 80
10 11/25/2020 21:45:39 0.99,-122.71 0.06,-127.10 499.24 80
11 11/26/2020 10:06:54 0.15,-127.85 -0.03,-127.05 91.57 80
